KQ4KX Weather Reports


time (UTC)temp
F
wind
direction
speed
knots
gust
knots
rain 1hr
in
rain 24hr
in
rain mn
in
humidity
%
barometer
mb
20260904000913 78 128 0.9 5.2 0.14 0.23 0.23 99 1014.4
20260904000734 78 128 0.9 5.2 0.14 0.23 0.23 99 1014.4
20260903235734 78 107 2.6 7.0 0.16 0.23 0.23 99 1014.4
20260903235436 79 103 4.3 7.8 0.15 0.22 0.22 98 1014.3
20260903235205 79 103 4.3 7.8 0.15 0.22 0.22 98 1014.3
20260903234704 79 102 4.3 7.8 0.15 0.22 0.22 98 1014.4
20260903234205 79 102 4.3 6.1 0.15 0.22 0.22 98 1014.3
20260903232810 79 105 2.6 6.1 0.11 0.18 0.18 98 1014.3
20260903232605 79 105 2.6 6.1 0.11 0.18 0.18 98 1014.3
20260903232402 79 112 0.9 3.5 0.08 0.15 0.15 97 1014.3
20260903232104 79 112 0.9 3.5 0.08 0.15 0.15 97 1014.3
20260903231604 79 146 0.0 2.6 0.06 0.13 0.13 97 1014.3
20260903231036 79 177 0.0 1.7 0.03 0.10 0.10 96 1014.3
20260903225434 79 237 0.9 0.9 0.00 0.07 0.07 96 1014.3
20260903224334 79 230 0.9 3.5 0.00 0.07 0.07 96 1014.0
20260903223234 79 239 1.7 3.5 0.00 0.07 0.07 95 1013.8
20260903222704 80 231 1.7 4.3 0.00 0.07 0.07 94 1013.8
20260903222134 80 244 1.7 4.3 0.00 0.07 0.07 92 1013.9
20260903221634 81 256 1.7 4.3 0.00 0.07 0.07 91 1013.9
20260903221104 82 237 1.7 4.3 0.00 0.07 0.07 90 1013.9
20260903220035 83 175 1.7 6.1 0.00 0.07 0.07 89 1013.7
20260903214739 84 104 7.0 13.9 0.01 0.07 0.07 89 1013.5
20260903214504 84 104 7.0 13.9 0.01 0.07 0.07 89 1013.5
20260903213934 84 103 8.7 13.9 0.01 0.07 0.07 91 1013.3
20260903213404 84 102 9.6 14.8 0.01 0.07 0.07 90 1013.2
20260903212834 84 99 10.4 15.6 0.02 0.07 0.07 89 1013.0
20260903212335 85 100 10.4 15.6 0.07 0.07 0.07 89 1013.0
20260903211032 87 96 5.2 17.4 0.07 0.07 0.07 87 1012.9
20260903210734 87 96 5.2 17.4 0.07 0.07 0.07 87 1012.9
20260903210204 87 81 2.6 7.8 0.07 0.07 0.07 86 1012.8
20260903210030 87 64 1.7 3.5 0.07 0.07 0.07 87 1012.6
20260903205704 87 64 1.7 3.5 0.07 0.07 0.07 87 1012.6
20260903204704 86 65 0.9 2.6 0.07 0.07 0.07 87 1012.4
20260903204134 86 84 3.5 9.6 0.06 0.06 0.06 87 1012.5
20260903203634 87 91 7.0 12.2 0.06 0.06 0.06 87 1012.8
20260903203134 89 97 7.8 12.2 0.06 0.06 0.06 82 1013.0
20260903202604 90 93 4.3 10.4 0.03 0.03 0.03 85 1012.9
20260903201036 89 56 1.7 3.5 0.00 0.00 0.00 80 1012.7
20260903195434 88 58 1.7 3.5 0.00 0.00 0.00 82 1013.2
20260903194934 88 53 1.7 3.5 0.00 0.00 0.00 83 1013.2
20260903194804 88 52 1.7 3.5 0.00 0.00 0.00 82 1013.3
20260903194434 88 52 1.7 3.5 0.00 0.00 0.00 82 1013.3
20260903193934 88 54 1.7 7.0 0.00 0.00 0.00 81 1013.4
20260903193712 88 71 2.6 7.0 0.00 0.00 0.00 82 1013.5
20260903193436 88 71 2.6 7.0 0.00 0.00 0.00 82 1013.5
20260903192404 89 79 2.6 7.8 0.00 0.00 0.00 80 1013.6
20260903191404 89 77 2.6 6.1 0.00 0.00 0.00 80 1013.8
20260903190834 89 80 2.6 6.1 0.00 0.00 0.00 81 1013.9
20260903185234 89 80 3.5 8.7 0.00 0.00 0.00 81 1013.8
20260903184704 89 80 2.6 8.7 0.00 0.00 0.00 82 1013.8
20260903184134 88 59 1.7 5.2 0.00 0.00 0.00 84 1013.6
20260903183635 87 55 1.7 5.2 0.00 0.00 0.00 85 1013.7
20260903183104 87 60 2.6 4.3 0.00 0.00 0.00 83 1013.8
20260903182604 88 58 2.6 4.3 0.00 0.00 0.00 81 1013.9
20260903182035 89 71 2.6 7.0 0.00 0.00 0.00 80 1013.9
20260903181035 91 101 1.7 5.2 0.00 0.00 0.00 75 1014.0
20260903180301 92 92 3.5 6.1 0.00 0.00 0.00 73 1014.2
20260903180005 92 92 3.5 6.1 0.00 0.00 0.00 73 1014.2
20260903175837 91 89 3.5 7.8 0.00 0.00 0.00 73 1014.3
20260903175505 91 89 3.5 7.8 0.00 0.00 0.00 73 1014.3
20260903174934 92 94 3.5 7.8 0.00 0.00 0.00 73 1014.4
20260903174434 93 102 3.5 6.1 0.00 0.00 0.00 71 1014.5
20260903173934 93 102 2.6 6.1 0.00 0.00 0.00 74 1014.5
20260903173404 92 98 1.7 3.5 0.00 0.00 0.00 71 1014.5
20260903172716 92 123 1.7 5.2 0.00 0.00 0.00 74 1014.8
20260903172404 92 123 1.7 5.2 0.00 0.00 0.00 74 1014.8
20260903171641 90 106 1.7 2.6 0.00 0.00 0.00 75 1014.8
20260903171404 90 106 1.7 2.6 0.00 0.00 0.00 75 1014.8
20260903170834 90 171 1.7 5.2 0.00 0.00 0.00 73 1014.8
20260903164234 90 107 2.6 7.0 0.00 0.00 0.00 75 1015.1
20260903163704 90 108 2.6 7.0 0.00 0.00 0.00 77 1015.2
20260903162634 89 156 1.7 5.2 0.00 0.00 0.00 77 1015.3
20260903161604 90 131 1.7 6.1 0.00 0.00 0.00 76 1015.3
20260903161352 89 155 1.7 5.2 0.00 0.00 0.00 78 1015.3
20260903161035 89 155 1.7 5.2 0.00 0.00 0.00 78 1015.3
20260903155504 89 126 2.6 5.2 0.00 0.00 0.00 77 1015.4
20260903155004 89 128 1.7 5.2 0.00 0.00 0.00 79 1015.4
20260903154504 89 148 2.6 5.2 0.00 0.00 0.00 76 1015.5
20260903154342 90 115 1.7 6.1 0.00 0.00 0.00 79 1015.5
20260903153934 90 115 1.7 6.1 0.00 0.00 0.00 79 1015.5
20260903153235 88 119 1.7 5.2 0.00 0.00 0.00 80 1015.6
20260903152934 88 119 1.7 5.2 0.00 0.00 0.00 80 1015.6
20260903152434 87 130 1.7 6.1 0.00 0.00 0.00 84 1015.5
20260903151404 87 143 2.6 6.1 0.00 0.00 0.00 81 1015.5
20260903150904 87 113 2.6 6.1 0.00 0.00 0.00 81 1015.6
20260903145306 85 154 1.7 5.2 0.00 0.00 0.00 86 1015.5
20260903144734 84 131 1.7 5.2 0.00 0.00 0.00 86 1015.7
20260903143134 84 139 1.7 4.3 0.00 0.00 0.00 87 1015.6
20260903142634 84 135 1.7 5.2 0.00 0.00 0.00 89 1015.5
20260903142105 84 164 1.7 5.2 0.00 0.00 0.00 88 1015.5
20260903141604 84 120 2.6 7.0 0.00 0.00 0.00 86 1015.5
20260903140813 84 124 0.9 5.2 0.00 0.00 0.00 89 1015.4
20260903140505 84 124 0.9 5.2 0.00 0.00 0.00 89 1015.4
20260903135934 83 116 1.7 5.2 0.00 0.00 0.00 90 1015.4
20260903135434 83 104 2.6 7.0 0.00 0.00 0.00 89 1015.4
20260903134434 83 104 1.7 5.2 0.00 0.00 0.00 94 1015.4
20260903133934 82 98 0.9 2.6 0.00 0.00 0.00 94 1015.3
20260903132334 82 114 0.9 2.6 0.00 0.00 0.00 96 1015.2
20260903131804 82 111 1.7 2.6 0.00 0.00 0.00 94 1015.2
20260903131235 82 100 1.7 3.5 0.00 0.00 0.00 97 1015.3
20260903130734 81 101 0.9 3.5 0.00 0.00 0.00 96 1015.3
20260903130234 81 104 1.7 3.5 0.00 0.00 0.00 97 1015.3
20260903125946 81 101 2.6 5.2 0.00 0.00 0.00 98 1015.2
20260903125705 81 101 2.6 5.2 0.00 0.00 0.00 98 1015.2
20260903124704 80 90 1.7 2.6 0.00 0.00 0.00 97 1015.2
20260903123843 80 96 2.6 6.1 0.00 0.00 0.00 98 1015.2
20260903123634 80 96 2.6 6.1 0.00 0.00 0.00 98 1015.2
20260903123105 80 98 3.5 7.0 0.00 0.00 0.00 98 1015.1
20260903122007 80 86 1.7 7.0 0.00 0.00 0.00 99 1015.1
20260903120714 79 88 0.9 2.6 0.00 0.00 0.00 99 1014.8
20260903120504 79 88 0.9 2.6 0.00 0.00 0.00 99 1014.8
20260903115434 79 82 1.7 3.5 0.00 0.00 0.00 99 1014.8
20260903114935 79 79 1.7 2.6 0.00 0.00 0.00 99 1014.7
20260903114434 79 79 0.9 2.6 0.00 0.00 0.00 100 1014.5
20260903113905 79 76 0.9 2.6 0.00 0.00 0.00 100 1014.4
20260903113334 79 65 0.9 2.6 0.00 0.00 0.00 99 1014.4
20260903112834 79 72 0.9 2.6 0.00 0.00 0.00 100 1014.3
20260903112334 79 80 0.9 2.6 0.00 0.00 0.00 100 1014.2
20260903111804 79 81 0.9 2.6 0.00 0.00 0.00 100 1014.1
20260903110734 78 79 1.7 3.5 0.00 0.00 0.00 100 1013.9
20260903105937 79 78 1.7 3.5 0.00 0.00 0.00 100 1014.0
20260903105704 79 78 1.7 3.5 0.00 0.00 0.00 100 1014.0
20260903104840 79 79 1.7 6.1 0.00 0.00 0.00 100 1013.8
20260903104634 79 79 1.7 6.1 0.00 0.00 0.00 100 1013.8
20260903104338 79 83 1.7 6.1 0.00 0.00 0.00 100 1013.7
20260903104134 79 83 1.7 6.1 0.00 0.00 0.00 100 1013.7
20260903103604 79 80 1.7 5.2 0.00 0.00 0.00 100 1013.6
20260903102036 79 83 2.6 7.0 0.00 0.00 0.00 100 1013.6
20260903100934 79 90 2.6 5.2 0.00 0.00 0.00 99 1013.8
20260903100718 79 89 2.6 6.1 0.00 0.00 0.00 99 1013.7
20260903100434 79 89 2.6 6.1 0.00 0.00 0.00 99 1013.7
20260903095452 79 79 1.7 7.0 0.00 0.00 0.00 99 1013.7
20260903095224 79 79 1.7 7.0 0.00 0.00 0.00 99 1013.7
20260903094834 79 79 1.7 7.0 0.00 0.00 0.00 99 1013.7
20260903093804 79 92 3.5 7.0 0.00 0.00 0.00 99 1013.8
20260903093702 80 80 1.7 7.0 0.00 0.00 0.00 97 1014.1
20260903093657 80 85 1.7 5.2 0.00 0.00 0.00 97 1014.2
20260903093655 80 97 2.6 5.2 0.00 0.00 0.00 97 1014.1
20260903093648 80 102 3.5 6.1 0.00 0.00 0.00 97 1014.2
20260903093234 79 95 3.5 7.0 0.00 0.00 0.00 99 1013.8
20260903092514 79 90 3.5 7.0 0.00 0.00 0.00 99 1013.7
20260903092205 79 90 3.5 7.0 0.00 0.00 0.00 99 1013.7
20260903090947 79 89 3.5 7.0 0.00 0.00 0.00 99 1013.6
20260903090634 79 89 3.5 7.0 0.00 0.00 0.00 99 1013.6
20260903090351 79 90 3.5 7.0 0.00 0.00 0.00 99 1013.6
20260903090104 79 90 3.5 7.0 0.00 0.00 0.00 99 1013.6
20260903085603 79 90 2.6 6.1 0.00 0.00 0.00 99 1013.5
20260903084222 78 105 1.7 3.5 0.00 0.00 0.00 99 1013.5
20260903083934 78 105 1.7 3.5 0.00 0.00 0.00 99 1013.5
20260903083151 79 97 2.6 5.2 0.00 0.00 0.00 99 1013.5
20260903082904 79 97 2.6 5.2 0.00 0.00 0.00 99 1013.5
20260903082630 79 92 2.6 6.1 0.00 0.00 0.00 99 1013.4
20260903082404 79 92 2.6 6.1 0.00 0.00 0.00 99 1013.4
20260903082126 79 86 1.7 6.1 0.00 0.00 0.00 99 1013.5
20260903081904 79 86 1.7 6.1 0.00 0.00 0.00 99 1013.5
20260903081334 79 89 1.7 3.5 0.00 0.00 0.00 99 1013.5
20260903081040 79 90 1.7 3.5 0.00 0.00 0.00 99 1013.5
20260903080804 79 90 1.7 3.5 0.00 0.00 0.00 99 1013.5
20260903080036 79 96 2.6 6.1 0.00 0.00 0.00 99 1013.7
20260903075734 79 96 2.6 6.1 0.00 0.00 0.00 99 1013.7
20260903075508 79 87 1.7 6.1 0.00 0.00 0.00 99 1013.8
20260903075234 79 87 1.7 6.1 0.00 0.00 0.00 99 1013.8
20260903075004 79 84 1.7 6.1 0.00 0.00 0.00 99 1013.8
20260903074704 79 84 1.7 6.1 0.00 0.00 0.00 99 1013.8
20260903074446 79 81 0.9 2.6 0.00 0.00 0.00 99 1013.8
20260903074134 79 81 0.9 2.6 0.00 0.00 0.00 99 1013.8
20260903073634 79 80 0.9 1.7 0.00 0.00 0.00 98 1013.8
20260903072604 79 90 0.9 2.6 0.00 0.00 0.00 98 1014.0
20260903070706 80 84 0.9 2.6 0.00 0.00 0.00 98 1013.9
20260903070404 80 84 0.9 2.6 0.00 0.00 0.00 98 1013.9
20260903065646 80 81 0.9 2.6 0.00 0.00 0.00 97 1014.2
20260903065334 80 81 0.9 2.6 0.00 0.00 0.00 97 1014.2
20260903064834 80 81 1.7 3.5 0.00 0.00 0.00 97 1014.2
20260903064334 80 87 1.7 5.2 0.00 0.00 0.00 97 1014.2
20260903063804 80 88 1.7 5.2 0.00 0.00 0.00 97 1014.1
20260903063447 80 80 1.7 7.0 0.00 0.00 0.00 97 1014.1
20260903063235 80 80 1.7 7.0 0.00 0.00 0.00 97 1014.1
20260903061829 80 85 1.7 5.2 0.00 0.00 0.00 97 1014.2
20260903061634 80 85 1.7 5.2 0.00 0.00 0.00 97 1014.2
20260903061104 80 97 2.6 5.2 0.00 0.00 0.00 97 1014.1
20260903060604 80 102 3.5 6.1 0.00 0.00 0.00 97 1014.2
20260903054740 77 23 0.9 1.7 0.00 0.00 0.00 99 1015.5
20260903054734 76 98 0.0 0.9 0.00 0.00 0.00 99 1016.2
20260903054732 92 98 4.3 9.6 0.00 0.33 0.00 71 1017.0
20260903052934 80 106 4.3 7.8 0.00 0.00 0.00 97 1014.5
20260903052807 80 104 4.3 7.8 0.00 0.00 0.00 96 1014.6
20260903052403 80 104 4.3 7.8 0.00 0.00 0.00 96 1014.6
20260903051646 80 99 4.3 7.8 0.00 0.00 0.00 96 1014.7
20260903051334 80 99 4.3 7.8 0.00 0.00 0.00 96 1014.7
20260903050804 80 100 4.3 7.8 0.00 0.00 0.00 96 1014.8
20260903050234 80 98 5.2 7.8 0.00 0.00 0.00 96 1014.9
20260903045704 80 96 6.1 8.7 0.00 0.00 0.00 96 1014.9
20260903044633 80 102 5.2 8.7 0.00 0.00 0.00 96 1015.0
20260903044134 80 102 5.2 8.7 0.00 0.00 0.00 96 1015.0
20260903043922 80 101 5.2 7.8 0.00 0.00 0.00 96 1015.1
20260903043634 80 101 5.2 7.8 0.00 0.00 0.00 96 1015.1
20260903043134 80 103 5.2 8.7 0.00 0.00 0.00 96 1015.1
20260903042828 80 102 6.1 9.6 0.00 0.00 0.00 96 1015.1
20260903042633 80 102 6.1 9.6 0.00 0.00 0.00 96 1015.1
20260903041035 81 100 4.3 7.8 0.00 0.00 0.00 95 1015.3
20260903035720 81 102 6.1 9.6 0.00 0.00 0.00 96 1015.1
20260903035506 81 102 6.1 9.6 0.00 0.00 0.00 96 1015.1
20260903034711 81 98 7.0 9.6 0.00 0.00 0.00 95 1015.0
20260903034434 81 98 7.0 9.6 0.00 0.00 0.00 95 1015.0
20260903033704 81 92 5.2 9.6 0.00 0.00 0.00 95 1015.1
20260903033334 81 92 5.2 9.6 0.00 0.00 0.00 95 1015.1
20260903032234 80 90 4.3 7.8 0.00 0.00 0.00 95 1015.3
20260903031950 80 94 4.3 7.8 0.00 0.00 0.00 96 1015.2
20260903031704 80 94 4.3 7.8 0.00 0.00 0.00 96 1015.2
20260903030634 80 84 2.6 7.0 0.00 0.00 0.00 96 1015.2
20260903030447 80 83 2.6 6.1 0.00 0.00 0.00 96 1015.4
20260903030134 80 83 2.6 6.1 0.00 0.00 0.00 96 1015.4
20260903023329 80 54 0.0 1.7 0.00 0.00 0.00 97 1015.3
20260903023104 80 54 0.0 1.7 0.00 0.00 0.00 97 1015.3
20260903020434 80 54 0.9 1.7 0.00 0.00 0.00 97 1015.2
20260903015711 80 51 0.9 1.7 0.00 0.00 0.00 97 1015.3
20260903015434 80 51 0.9 1.7 0.00 0.00 0.00 97 1015.3
20260903014713 80 46 0.9 1.7 0.00 0.00 0.00 96 1015.0
20260903014334 80 46 0.9 1.7 0.00 0.00 0.00 96 1015.0
20260903014114 80 46 0.9 1.7 0.00 0.00 0.00 96 1014.9
20260903013834 80 46 0.9 1.7 0.00 0.00 0.00 96 1014.9
20260903012956 80 45 0.9 2.6 0.00 0.00 0.00 96 1015.0
20260903012734 80 45 0.9 2.6 0.00 0.00 0.00 96 1015.0
20260903010922 80 85 0.9 0.9 0.00 0.00 0.00 94 1014.7
20260903010634 80 85 0.9 0.9 0.00 0.00 0.00 94 1014.7
20260903005825 80 66 0.9 1.7 0.00 0.00 0.00 94 1014.4
20260903005605 80 66 0.9 1.7 0.00 0.00 0.00 94 1014.4
20260903004357 80 29 0.9 2.6 0.00 0.00 0.00 94 1014.2
20260903003934 80 29 0.9 2.6 0.00 0.00 0.00 94 1014.2
20260903002834 80 40 0.9 2.6 0.00 0.00 0.00 94 1014.3
20260903002333 80 55 0.9 1.7 0.00 0.00 0.00 95 1014.3
20260903001834 80 74 0.9 2.6 0.00 0.00 0.00 95 1014.3
20260903001334 80 65 0.9 2.6 0.00 0.00 0.00 95 1014.4